TimeCST,TemperatureF,Dew PointF,Humidity,Sea Level PressureIn,VisibilityMPH,Wind Direction,Wind SpeedMPH,Gust SpeedMPH,PrecipitationIn,Events,Conditions,WindDirDegrees,DateUTC
12:54 AM,-8.0,-14.1,75,30.37,10.0,WNW,3.5,-,N/A,,Clear,300,2013-12-30 06:54:00
1:54 AM,-11.0,-16.1,78,30.36,10.0,Calm,Calm,-,N/A,,Clear,0,2013-12-30 07:54:00
2:54 AM,-11.0,-15.0,83,30.36,10.0,Calm,Calm,-,N/A,,Clear,0,2013-12-30 08:54:00
3:54 AM,-9.9,-15.0,78,30.36,10.0,West,3.5,-,N/A,,Clear,280,2013-12-30 09:54:00
4:54 AM,-9.0,-13.0,83,30.36,10.0,Calm,Calm,-,N/A,,Clear,0,2013-12-30 10:54:00
5:54 AM,-9.0,-14.1,79,30.36,10.0,Calm,Calm,-,N/A,,Clear,0,2013-12-30 11:54:00
6:54 AM,-9.0,-13.0,83,30.36,10.0,South,3.5,-,N/A,,Clear,190,2013-12-30 12:54:00
7:54 AM,-8.0,-13.0,79,30.36,10.0,Calm,Calm,-,N/A,,Clear,0,2013-12-30 13:54:00
8:54 AM,-5.1,-11.0,76,30.35,10.0,SSE,9.2,-,N/A,,Overcast,160,2013-12-30 14:54:00
9:54 AM,-2.9,-11.0,68,30.35,10.0,SSE,6.9,-,N/A,,Mostly Cloudy,160,2013-12-30 15:54:00
10:54 AM,-2.0,-11.0,66,30.36,10.0,South,3.5,-,N/A,,Overcast,180,2013-12-30 16:54:00
11:36 AM,-0.0,-8.0,69,30.26,1.8,Calm,Calm,-,0.00,Snow,Light Snow,0,2013-12-30 17:36:00
11:54 AM,-0.0,-6.0,76,30.31,1.0,ESE,5.8,-,0.00,Snow,Light Snow,120,2013-12-30 17:54:00
12:24 PM,1.0,-5.1,75,30.21,0.8,ESE,8.1,-,0.01,Snow,Light Snow,110,2013-12-30 18:24:00
12:37 PM,1.0,-5.1,75,30.20,1.0,SE,8.1,-,0.01,Snow,Light Snow,130,2013-12-30 18:37:00
12:54 PM,1.0,-5.1,75,30.26,0.8,SE,8.1,-,0.02,Snow,Light Snow,130,2013-12-30 18:54:00
1:18 PM,1.0,-4.0,79,30.18,1.2,SSE,8.1,-,0.00,Snow,Light Snow,160,2013-12-30 19:18:00
1:54 PM,1.9,-2.9,80,30.23,0.8,SE,8.1,-,0.01,Snow,Light Snow,140,2013-12-30 19:54:00
2:26 PM,1.9,-4.0,76,30.16,1.0,SE,8.1,-,0.01,Snow,Light Snow,140,2013-12-30 20:26:00
2:51 PM,1.4,-2.2,85,30.15,0.5,ESE,6.9,-,0.02,Fog-Snow,Snow,110,2013-12-30 20:51:00
2:54 PM,1.9,-2.0,83,30.23,0.5,ESE,6.9,-,0.02,Fog-Snow,Snow,110,2013-12-30 20:54:00
3:02 PM,1.9,-2.0,83,30.15,0.5,ESE,5.8,-,0.00,Fog-Snow,Snow,120,2013-12-30 21:02:00
3:54 PM,3.0,-0.9,84,30.24,0.8,SE,6.9,-,0.02,Snow,Light Snow,140,2013-12-30 21:54:00
4:06 PM,3.0,-0.9,84,30.17,1.0,SSE,6.9,-,0.01,Snow,Light Snow,160,2013-12-30 22:06:00
4:33 PM,3.0,-0.9,84,30.18,0.8,SSE,4.6,-,0.01,Snow,Light Snow,150,2013-12-30 22:33:00
4:43 PM,3.0,-0.9,84,30.18,1.5,SSE,4.6,-,0.01,Snow,Light Snow,150,2013-12-30 22:43:00
4:54 PM,3.0,-0.0,87,30.26,1.5,SE,3.5,-,0.02,Snow,Light Snow,140,2013-12-30 22:54:00
5:37 PM,3.0,-0.0,87,30.17,2.5,SSE,6.9,-,0.01,Snow,Light Snow,150,2013-12-30 23:37:00
5:44 PM,3.9,-0.9,80,30.16,3.0,SE,6.9,-,0.01,Snow,Light Snow,140,2013-12-30 23:44:00
5:54 PM,3.9,-0.0,84,30.24,6.0,ESE,5.8,-,0.01,Snow,Light Snow,120,2013-12-30 23:54:00
6:08 PM,3.9,-0.0,84,30.16,2.5,ESE,5.8,-,0.00,Snow,Light Snow,110,2013-12-31 00:08:00
6:54 PM,3.9,-0.0,84,30.26,2.0,Calm,Calm,-,0.01,Snow,Light Snow,0,2013-12-31 00:54:00
7:09 PM,3.9,1.0,88,30.19,1.8,Calm,Calm,-,0.00,Snow,Light Snow,0,2013-12-31 01:09:00
7:27 PM,3.9,-0.0,84,30.19,2.0,Calm,Calm,-,0.00,Snow,Light Snow,0,2013-12-31 01:27:00
7:54 PM,3.9,-0.0,84,30.26,2.5,East,3.5,-,0.01,Snow,Light Snow,90,2013-12-31 01:54:00
8:14 PM,3.0,-0.0,87,30.18,3.0,ENE,3.5,-,0.00,Snow,Light Snow,60,2013-12-31 02:14:00
8:38 PM,-0.0,-2.0,91,30.20,5.0,Calm,Calm,-,0.00,Snow,Light Snow,0,2013-12-31 02:38:00
8:54 PM,-2.0,-4.0,91,30.27,4.0,North,3.5,-,0.00,,Mostly Cloudy,10,2013-12-31 02:54:00
9:05 PM,-2.0,-5.1,87,30.19,9.0,NNE,3.5,-,N/A,,Scattered Clouds,20,2013-12-31 03:05:00
9:54 PM,-7.1,-9.9,87,30.28,8.0,Calm,Calm,-,N/A,,Clear,0,2013-12-31 03:54:00
10:32 PM,-9.0,-11.0,91,30.21,1.8,Calm,Calm,-,N/A,,Clear,0,2013-12-31 04:32:00
10:42 PM,-9.0,-11.9,87,30.21,0.8,Calm,Calm,-,N/A,,Clear,0,2013-12-31 04:42:00
10:47 PM,-11.0,-14.1,86,30.22,2.5,Calm,Calm,-,N/A,,Clear,0,2013-12-31 04:47:00
10:54 PM,-13.0,-15.0,91,30.30,8.0,NW,3.5,-,N/A,,Clear,320,2013-12-31 04:54:00
11:54 PM,-15.0,-18.0,86,30.30,10.0,NNW,3.5,-,N/A,,Clear,330,2013-12-31 05:54:00